Location: ??????????
(54.8537°N, 38.8755°E)
Time: 23:33:20
(UTC+00:00)

Transit 2A Rocket - Pass Details

Date: 20 September 2024
Orbit: 582 x 908 km, 66.7° (Epoch: 09 October)

Event Time Altitude Azimuth Distance (km) Brightness Sun altitude
Exits shadow 19:18:55 15° 58° (ENE) 2,258 7.4 -29.4°
Drops below altitude 10° 19:19:59 10° 53° (NE) 2,598 7.7 -29.5°
Sets 19:22:41 0° 44° (NE) 3,529 8.6 -29.7°
